Regional Weather Roundup
Issued by NWS

Home | Current Version | Previous Version | Text Only | Print | Product List | Glossary On
Versions: 1 2 3 4 5 6 7 8 9 10 11 12 13 14 15 16 17 18 19 20 21 22 23 24 25 26 27 28 29 30 31 32 33 34 35 36 37 38 39 40 41 42 43 44 45 46 47 48 49 50
000
ASUS43 KMKX 270721
RWRWI

WISCONSIN REGIONAL WEATHER ROUNDUP
NATIONAL WEATHER SERVICE MILWAUKEE/SULLIVAN WI
200 AM CDT THU APR 27 2017

NOTE: "FAIR" INDICATES FEW OR NO CLOUDS BELOW 12,000 FEET WITH NO
SIGNIFICANT WEATHER AND/OR OBSTRUCTIONS TO VISIBILITY.

WIZ001-002-006>008-014>016-023>028-270800-
NORTHWEST WISCONSIN

CITY           SKY/WX    TMP DP  RH WIND       PRES   REMARKS
SUPERIOR ARPT  CLOUDY    28  24  84 CALM      29.61F
ASHLAND        LGT SNOW  28  26  92 N7        29.58F FOG     WCI  21
HAYWARD        CLOUDY    29  25  85 N8        29.53F WCI  21
SIREN          CLOUDY    31  27  86 NE7       29.56F WCI  24
CUMBERLAND     CLOUDY    32  30  93 N8        29.53F FOG     WCI  25
RICE LAKE      CLOUDY    33  28  85 N10       29.55F WCI  24
CHETEK         CLOUDY    33  29  85 N3        29.52F
LADYSMITH      CLOUDY    32  28  85 N10       29.52F WCI  24
EAU CLAIRE     CLOUDY    35  28  75 N10       29.50F WCI  27
MENOMONIE      CLOUDY    36  31  81 N9        29.52F WCI  29
NEW RICHMOND   CLOUDY    33  30  86 N7        29.55R WCI  27
OSCEOLA        CLOUDY    34  33  95 N6        29.58S WCI  29
$$

WIZ003>005-009-010-017-018-270800-
NORTH CENTRAL WISCONSIN

CITY           SKY/WX    TMP DP  RH WIND       PRES   REMARKS
MANITOWISH WTR LGT SNOW  28  28 100 N6        29.49F WCI  22
ARBOR VITAE    LGT SNOW  32  30  94 N10       29.47F WCI  23
WOODRUFF       LGT SNOW  32  30  94 N10       29.47F WCI  23
RHINELANDER    CLOUDY    33  32  96 VRB6      29.47S WCI  28
EAGLE RIVER    LGT SNOW  30  29  96 N9        29.47S WCI  22
LAND O LAKES   LGT SNOW  30  28  93 N12       29.48F WCI  20
PHILLIPS       CLOUDY    29  27  92 N12       29.49F WCI  20
TOMAHAWK       CLOUDY    32  29  90 N5        29.47S WCI  27
MEDFORD        CLOUDY    33  32  98 N9        29.45S WCI  25
MERRILL        CLOUDY    35  34  97 N6        29.46F WCI  30
$$

WIZ029-030-035-036-043>047-270800-
CENTRAL WISCONSIN

CITY           SKY/WX    TMP DP  RH WIND       PRES   REMARKS
WAUSAU         CLOUDY    37  35  92 NW8       29.43F WCI  31
MOSINEE        CLOUDY    37  36  93 NW9       29.45F WCI  31
MARSHFIELD     CLOUDY    37  36  96 N9        29.44F FOG     WCI  30
STEVENS POINT  CLOUDY    39  38  95 NW6       29.44F
WAUPACA        DRIZZLE   46  42  86 W7        29.42F
WAUTOMA        LGT RAIN  43  41  93 NW8       29.43F
WISC RAPIDS    CLOUDY    41  38  89 NW10      29.45F
CAMP DOUGLAS   LGT RAIN  40  38  93 NW8       29.45F WCI  34
$$

WIZ011>013-019>022-031-037>040-048>050-270800-
NORTHEAST WISCONSIN

CITY           SKY/WX    TMP DP  RH WIND       PRES   REMARKS
ANTIGO         CLOUDY    36  34  94 N10       29.44S WCI  28
SHAWANO        DRIZZLE   48  44  88 N8        29.42F
OCONTO         CLOUDY    46  45  95 N7        29.41F
STURGEON BAY   RAIN      46  45  96 N10       29.42F
GREEN BAY      LGT RAIN  50  50 100 CALM      29.39F
MANITOWOC      CLOUDY    52  50  93 NW6       29.40F
APPLETON       DRIZZLE   45  43  93 W6        29.39F
CLINTONVILLE   DRIZZLE   45  41  87 NW6       29.42F
OSHKOSH        LGT RAIN  46  43  89 W7        29.40F
$$

WIZ032>034-041-042-053>061-270800-
SOUTHWEST WISCONSIN

CITY           SKY/WX    TMP DP  RH WIND       PRES   REMARKS
LA CROSSE      CLOUDY    41  37  86 N12       29.49F
SPARTA         CLOUDY    39  38  97 NW8       29.48F WCI  33
VIROQUA        CLOUDY    39  38  99 NW8       29.46F WCI  33
BOSCOBEL       LGT RAIN  43  39  86 NW6       29.47F
PRAIRIE DU CHI LGT RAIN  41  38  89 NW8       29.50R
PLATTEVILLE    CLOUDY    42  42 100 NW10      29.45F
$$

WIZ056-057-062-063-064-067-068-270800-
SOUTH CENTRAL WISCONSIN

CITY           SKY/WX    TMP DP  RH WIND       PRES   REMARKS
REEDSBURG      RAIN      41  41 100 NW8       29.44F
BARABOO/DELLS  RAIN      41  39  95 NW9       29.43F
LONE ROCK      LGT RAIN  43  40  89 NW10      29.44F FOG
MINERAL POINT  DRIZZLE   43  43 100 NW12      29.42F
MADISON        LGT RAIN  45  43  93 N8        29.39F
MIDDLETON      CLOUDY    46  45  97 N8        29.41F
WATERTOWN      LGT RAIN  47  47 100 N6        29.40F
MONROE         DRIZZLE   45  45 100 NW8       29.40F
JANESVILLE     RAIN      50  50 100 NW7       29.38F
$$

WIZ051-052-058>065-066-070>072-270800-
SOUTHEAST WISCONSIN

CITY           SKY/WX    TMP DP  RH WIND       PRES   REMARKS
MILWAUKEE      LGT RAIN  57  55  93 NE5       29.37F FOG
WAUKESHA       RAIN      50  50 100 N3        29.39F
MILWAUKEE/TIMM RAIN      54  50  87 N7        29.38F
RACINE         LGT RAIN  54  53  97 SE5       29.39F FOG
KENOSHA        LGT RAIN  57  55  93 E5        29.38F FOG
FOND DU LAC    RAIN      48  44  86 NW8       29.41F FOG
SHEBOYGAN      NOT AVBL
WEST BEND      LGT RAIN  50  50 100 CALM      29.39F
JUNEAU         RAIN      45  44  97 CALM      29.41F
$$

LSZ147-162-270800-
LAKE SUPERIOR

STATION/POSITION TIME  TEMP    WIND        PRES    WAVE
                       AIR SEA DIR/SP/G            HT/PER
                 (UTC) (F)     (DEG/KT/KT) (MB)    (FT/S)
DEVILS ISLAND    0700   27      10/ 12/ 13 1003.3F
SAXON HARBOR     0700   31      30/ 14/ 17 1001.4
$$

LMZ867-665-643>646-270800-
LAKE MICHIGAN

STATION/POSITION TIME  TEMP    WIND        PRES    WAVE
                       AIR SEA DIR/SP/G            HT/PER
                 (UTC) (F)     (DEG/KT/KT) (MB)    (FT/S)
CHAMBERS ISLAND  0640   44     300/  5/  9  996.3F
N MID LAKE BUOY  0650   40 37  160/  4/  4  997.6R   1/ 5
NORTHPORT PIER   0640   44     300/ 10/ 14  996.6S
KEWAUNEE LAKESHO 0700   53     310/  3/  4  995.5
SHEBOYGAN LAKESH 0700   51     330/  4/  5  995.1F
PORT WASHINGTON  0630   55     320/  2/  3  996.6F
MILWAUKEE LAKESH 0700   51      60/  6/  7   N/A
S MID LAKE BUOY  0650   47 42   90/  8/  8  996.0F   0
KENOSHA   LAKESH 0700   52     210/  3/  6  994.9
$$

TC  - TEMPERATURE IN CELSIUS
VSB - VISIBILITY IN STATUTE MILES
WCI - WIND CHILL INDEX
HX  - HEAT INDEX




USA.gov is the U.S. government's official web portal to all federal, state and local government web resources and services.